This is the latest recevied weather packets stored in our database for station/object W7TTE. If no packets are shown the sender has not sent any weather packets the latest 10 day(s).
| Time | Temp. | Humidity | Pressure | Rain* | Wind** | Luminosity | Snow |
|---|---|---|---|---|---|---|---|
| 1777743005 | 31.67° C | 25% | 1015.9 hPa | 0 mm | - | 673 W/m² | - |
| 1777742701 | 31.67° C | 24% | 1016.1 hPa | 0 mm | - | 663 W/m² | - |
| 1777742397 | 31.11° C | 24% | 1016 hPa | 0 mm | - | 657 W/m² | - |
| 1777742093 | 31.11° C | 24% | 1015.9 hPa | 0 mm | - | 648 W/m² | - |
| 1777741791 | 31.11° C | 25% | 1015.5 hPa | 0 mm | - | 637 W/m² | - |
| 1777741488 | 31.67° C | 24% | 1015.9 hPa | 0 mm | - | 625 W/m² | - |
| 1777741183 | 30.56° C | 25% | 1015.9 hPa | 0 mm | - | 614 W/m² | - |
| 1777740881 | 30.56° C | 25% | 1016.1 hPa | 0 mm | - | 603 W/m² | - |
| 1777740578 | 30.56° C | 25% | 1016 hPa | 0 mm | - | 591 W/m² | - |
| 1777740274 | 30° C | 26% | 1015.9 hPa | 0 mm | - | 579 W/m² | - |
| 1777739971 | 30° C | 25% | 1016 hPa | 0 mm | - | 566 W/m² | - |
| 1777739667 | 30.56° C | 26% | 1016.2 hPa | 0 mm | - | 552 W/m² | - |
| 1777739365 | 30.56° C | 25% | 1015.9 hPa | 0 mm | - | 539 W/m² | - |
| 1777739062 | 29.44° C | 26% | 1016 hPa | 0 mm | - | 523 W/m² | - |
| 1777738759 | 30° C | 26% | 1015.9 hPa | 0 mm | - | 512 W/m² | - |
| 1777738455 | 29.44° C | 26% | 1015.9 hPa | 0 mm | - | 497 W/m² | - |
| 1777738153 | 29.44° C | 27% | 1016 hPa | 0 mm | - | 482 W/m² | - |
| 1777737851 | 28.89° C | 27% | 1016 hPa | 0 mm | - | 468 W/m² | - |
| 1777737550 | 28.89° C | 25% | 1015.8 hPa | 0 mm | - | 452 W/m² | - |
| 1777737248 | 27.78° C | 25% | 1015.8 hPa | 0 mm | - | 436 W/m² | - |
| 1777736943 | 27.78° C | 25% | 1015.9 hPa | 0 mm | - | 421 W/m² | - |
| 1777736037 | 27.22° C | 23% | 1015.8 hPa | 0 mm | - | 374 W/m² | - |
| 1777735734 | 27.22° C | 23% | 1015.7 hPa | 0 mm | - | 359 W/m² | - |
| 1777735432 | 27.22° C | 23% | 1015.6 hPa | 0 mm | - | 343 W/m² | - |
| 1777735129 | 27.22° C | 23% | 1015.8 hPa | 0 mm | - | 327 W/m² | - |
* Rain latest hour (hover to see other rain measurements)
** Current wind speed in m/s (hover to see current wind gust speed)